Location: Góry Miechowskie
(50.3599°N, 20.1803°E)
Time: 07:58:46
(UTC+00:00)

A-11 Canister half - Pass Details

Date: 16 September 2024
Orbit: 1515 x 1684 km, 47.2° (Epoch: 05 October)

Event Time Altitude Azimuth Distance (km) Brightness Sun altitude
Rises 20:08:56 0° 269° (W) 4,692 12.1 -29.0°
Reaches altitude 10° 20:11:59 10° 268° (W) 3,696 11.4 -29.3°
Maximum altitude 20:21:13 74° 186° (S) 1,571 8.8 -30.3°
Enters shadow 20:22:45 63° 131° (SE) 1,668 8.8 -30.4°
Drops below altitude 10° 20:30:26 10° 103° (ESE) 3,687 - -31.2°
Sets 20:33:29 0° 102° (ESE) 4,680 - -31.5°
